Stündliche Wetter Cavalcante

Heute, 18 Januar, Montag

Zeit Temperatur Niederschläge Wind Luftdruck Luftfeuchtigkeit
00:00 +22°C° 0.1 mm 1 m/S 689 mmHg 87%
01:00 +22°C° 0.5 mm 1 m/S 689 mmHg 89%
02:00 +22°C° 0.5 mm 1 m/S 689 mmHg 90%
03:00 +22°C° 0.5 mm 1 m/S 688 mmHg 92%
04:00 +22°C° 0.3 mm 1 m/S 688 mmHg 92%
05:00 +21°C° 0.3 mm 1 m/S 689 mmHg 92%
06:00 +21°C° 0.3 mm 1 m/S 689 mmHg 92%
07:00 +22°C° 0.3 mm 1 m/S 689 mmHg 89%
08:00 +23°C° 0.3 mm 2 m/S 690 mmHg 86%
09:00 +24°C° 0.3 mm 2 m/S 690 mmHg 83%
10:00 +25°C° 0 mm 2 m/S 690 mmHg 76%
11:00 +27°C° 0 mm 2 m/S 690 mmHg 69%
12:00 +29°C° 0 mm 3 m/S 691 mmHg 62%
13:00 +29°C° 0.3 mm 3 m/S 690 mmHg 63%
14:00 +29°C° 0.3 mm 3 m/S 689 mmHg 64%
15:00 +29°C° 0.3 mm 3 m/S 689 mmHg 65%
16:00 +28°C° 0.4 mm 2 m/S 688 mmHg 70%
17:00 +27°C° 0.4 mm 2 m/S 688 mmHg 75%
18:00 +26°C° 0.4 mm 1 m/S 688 mmHg 80%
19:00 +25°C° 0 mm 1 m/S 688 mmHg 81%
20:00 +24°C° 0 mm 1 m/S 688 mmHg 83%
21:00 +23°C° 0 mm 1 m/S 688 mmHg 84%
22:00 +22°C° 0 mm 1 m/S 689 mmHg 84%
23:00 +20°C° 0 mm 0 m/S 689 mmHg 83%

Morgen, 19 Januar, Dienstag

Zeit Temperatur Niederschläge Wind Luftdruck Luftfeuchtigkeit
00:00 +20°C° 0 mm 0 m/S 689 mmHg 82%
01:00 +22°C° 0 mm 1 m/S 689 mmHg 83%
02:00 +22°C° 0 mm 1 m/S 689 mmHg 84%
03:00 +22°C° 0 mm 1 m/S 688 mmHg 85%
04:00 +21°C° 0 mm 1 m/S 688 mmHg 86%
05:00 +21°C° 0 mm 1 m/S 688 mmHg 87%
06:00 +21°C° 0 mm 1 m/S 688 mmHg 88%
07:00 +22°C° 0 mm 1 m/S 689 mmHg 81%
08:00 +24°C° 0 mm 2 m/S 690 mmHg 74%
09:00 +26°C° 0 mm 2 m/S 691 mmHg 67%
10:00 +27°C° 0 mm 2 m/S 691 mmHg 64%
11:00 +28°C° 0 mm 3 m/S 691 mmHg 60%
12:00 +29°C° 0 mm 3 m/S 691 mmHg 57%
13:00 +29°C° 0 mm 3 m/S 690 mmHg 56%
14:00 +30°C° 0 mm 3 m/S 689 mmHg 55%
15:00 +30°C° 0 mm 3 m/S 689 mmHg 55%
16:00 +29°C° 0 mm 2 m/S 688 mmHg 60%
17:00 +28°C° 0 mm 2 m/S 688 mmHg 66%
18:00 +27°C° 0 mm 1 m/S 688 mmHg 72%
19:00 +26°C° 0 mm 1 m/S 688 mmHg 72%
20:00 +24°C° 0 mm 1 m/S 688 mmHg 73%
21:00 +23°C° 0 mm 1 m/S 689 mmHg 73%
22:00 +23°C° 0 mm 1 m/S 689 mmHg 74%
23:00 +23°C° 0 mm 1 m/S 690 mmHg 74%

übermorgen, 20 Januar, Mittwoch

Zeit Temperatur Niederschläge Wind Luftdruck Luftfeuchtigkeit
00:00 +22°C° 0 mm 1 m/S 690 mmHg 75%
01:00 +22°C° 0 mm 1 m/S 690 mmHg 76%
02:00 +22°C° 0 mm 1 m/S 689 mmHg 78%
03:00 +21°C° 0 mm 1 m/S 689 mmHg 79%
04:00 +21°C° 0 mm 1 m/S 689 mmHg 79%
05:00 +21°C° 0 mm 1 m/S 689 mmHg 80%
06:00 +21°C° 0 mm 1 m/S 689 mmHg 80%
07:00 +23°C° 0 mm 1 m/S 690 mmHg 76%
08:00 +24°C° 0 mm 2 m/S 690 mmHg 72%
09:00 +26°C° 0 mm 2 m/S 691 mmHg 68%
10:00 +27°C° 0.1 mm 2 m/S 691 mmHg 65%
11:00 +28°C° 0.1 mm 3 m/S 691 mmHg 62%
12:00 +29°C° 0.1 mm 3 m/S 690 mmHg 59%
13:00 +29°C° 0.4 mm 3 m/S 690 mmHg 61%
14:00 +28°C° 0.4 mm 2 m/S 689 mmHg 62%
15:00 +28°C° 0.4 mm 2 m/S 688 mmHg 64%
16:00 +27°C° 0.4 mm 2 m/S 688 mmHg 68%
17:00 +26°C° 0.4 mm 1 m/S 688 mmHg 73%
18:00 +25°C° 0.4 mm 1 m/S 687 mmHg 77%
19:00 +24°C° 0 mm 1 m/S 688 mmHg 77%
20:00 +23°C° 0 mm 1 m/S 688 mmHg 78%
21:00 +23°C° 0 mm 1 m/S 689 mmHg 78%
22:00 +23°C° 0 mm 1 m/S 689 mmHg 78%
23:00 +23°C° 0 mm 1 m/S 689 mmHg 79%

21 Januar, Donnerstag

Zeit Temperatur Niederschläge Wind Luftdruck Luftfeuchtigkeit
00:00 +22°C° 0 mm 1 m/S 689 mmHg 79%
01:00 +22°C° 0 mm 1 m/S 689 mmHg 79%
02:00 +22°C° 0 mm 1 m/S 689 mmHg 78%
03:00 +22°C° 0 mm 1 m/S 689 mmHg 78%
04:00 +22°C° 0 mm 1 m/S 689 mmHg 80%
05:00 +21°C° 0 mm 1 m/S 689 mmHg 82%
06:00 +21°C° 0 mm 1 m/S 689 mmHg 84%
07:00 +23°C° 0 mm 1 m/S 690 mmHg 79%
08:00 +24°C° 0 mm 2 m/S 691 mmHg 73%
09:00 +26°C° 0 mm 2 m/S 691 mmHg 68%
10:00 +27°C° 0.3 mm 2 m/S 691 mmHg 68%
11:00 +27°C° 0.3 mm 3 m/S 691 mmHg 67%
12:00 +28°C° 0.3 mm 3 m/S 690 mmHg 67%
13:00 +28°C° 0.3 mm 3 m/S 690 mmHg 66%
14:00 +29°C° 0.3 mm 2 m/S 690 mmHg 65%
15:00 +29°C° 0.3 mm 2 m/S 689 mmHg 63%
16:00 +28°C° 0.4 mm 2 m/S 689 mmHg 67%
17:00 +27°C° 0.4 mm 1 m/S 689 mmHg 71%
18:00 +26°C° 0.4 mm 1 m/S 689 mmHg 75%
19:00 +25°C° 0.1 mm 1 m/S 689 mmHg 77%
20:00 +24°C° 0.1 mm 1 m/S 689 mmHg 80%
21:00 +23°C° 0.1 mm 1 m/S 689 mmHg 82%
22:00 +23°C° 0 mm 1 m/S 690 mmHg 81%
23:00 +23°C° 0 mm 1 m/S 690 mmHg 81%

22 Januar, Freitag

Zeit Temperatur Niederschläge Wind Luftdruck Luftfeuchtigkeit
00:00 +23°C° 0 mm 1 m/S 690 mmHg 81%
01:00 +22°C° 0 mm 1 m/S 690 mmHg 81%
02:00 +22°C° 0 mm 1 m/S 689 mmHg 82%
03:00 +21°C° 0 mm 1 m/S 689 mmHg 82%
04:00 +21°C° 0 mm 1 m/S 689 mmHg 82%
05:00 +21°C° 0 mm 1 m/S 690 mmHg 83%
06:00 +20°C° 0 mm 2 m/S 690 mmHg 83%
07:00 +21°C° 0 mm 2 m/S 691 mmHg 78%
08:00 +24°C° 0 mm 2 m/S 691 mmHg 73%
09:00 +26°C° 0 mm 2 m/S 692 mmHg 68%
10:00 +27°C° 0 mm 3 m/S 692 mmHg 65%
11:00 +28°C° 0 mm 3 m/S 692 mmHg 63%
12:00 +29°C° 0 mm 4 m/S 692 mmHg 60%
13:00 +29°C° 0.1 mm 3 m/S 691 mmHg 60%
14:00 +29°C° 0.1 mm 3 m/S 691 mmHg 59%
15:00 +30°C° 0.1 mm 3 m/S 690 mmHg 58%
16:00 +29°C° 0.1 mm 2 m/S 690 mmHg 62%
17:00 +28°C° 0.1 mm 2 m/S 690 mmHg 67%
18:00 +27°C° 0.1 mm 1 m/S 689 mmHg 71%
19:00 +26°C° 0 mm 1 m/S 690 mmHg 71%
20:00 +25°C° 0 mm 1 m/S 690 mmHg 71%
21:00 +24°C° 0 mm 1 m/S 690 mmHg 71%
22:00 +23°C° 0 mm 1 m/S 690 mmHg 72%
23:00 +23°C° 0 mm 1 m/S 690 mmHg 72%

23 Januar, Samstag

Zeit Temperatur Niederschläge Wind Luftdruck Luftfeuchtigkeit
00:00 +22°C° 0 mm 1 m/S 690 mmHg 73%
01:00 +22°C° 0 mm 1 m/S 690 mmHg 72%
02:00 +22°C° 0 mm 1 m/S 690 mmHg 71%
03:00 +21°C° 0 mm 1 m/S 689 mmHg 70%
04:00 +21°C° 0 mm 1 m/S 689 mmHg 71%
05:00 +20°C° 0 mm 2 m/S 690 mmHg 73%
06:00 +20°C° 0 mm 2 m/S 690 mmHg 75%
07:00 +21°C° 0 mm 2 m/S 691 mmHg 70%
08:00 +24°C° 0 mm 3 m/S 691 mmHg 66%
09:00 +26°C° 0 mm 3 m/S 692 mmHg 62%
10:00 +27°C° 0 mm 3 m/S 692 mmHg 60%
11:00 +28°C° 0 mm 3 m/S 692 mmHg 58%
12:00 +29°C° 0 mm 4 m/S 692 mmHg 56%
13:00 +29°C° 0 mm 3 m/S 691 mmHg 54%
14:00 +30°C° 0 mm 3 m/S 691 mmHg 51%
15:00 +30°C° 0 mm 3 m/S 690 mmHg 49%
16:00 +29°C° 0 mm 2 m/S 689 mmHg 55%
17:00 +28°C° 0 mm 2 m/S 689 mmHg 60%
18:00 +27°C° 0 mm 1 m/S 688 mmHg 66%
19:00 +26°C° 0 mm 1 m/S 689 mmHg 66%
20:00 +25°C° 0 mm 1 m/S 689 mmHg 66%
21:00 +24°C° 0 mm 1 m/S 689 mmHg 67%
22:00 +23°C° 0 mm 1 m/S 689 mmHg 67%
23:00 +23°C° 0 mm 1 m/S 690 mmHg 68%
Mehr zeigen

Wir brauchen deine Erlaubnis

Meteoprog und unser Service Anbieter werden persönliche Daten aufbewahren, so wie Cookies, Geräte Bezeichnung oder ähnliche Technologien von deinem Gerät und Prozess, so wie Persönliche Daten Inhalte und Werbungen, genauso wie social Media und den Verkehr zu analysieren.

  • Aufbewahrung und/oder Zugang zu deiner Geräte Informationen.

    Cookies, Geräte Bezeichnung oder andere Informationen, können aufbewahrt oder Zugang zu deinem Gerät erhalten, für den Grund, der oben angegeben wird.

  • Personalisierte Werbung und Inhalte, Messungen, Einblick in das Publikum und Produkt Entwicklung.

    Werbungen und Inhalte können personalisiert werden, basierend auf ein Profil. Mehr Daten können besser personalisierte Werbungen und Inhalte hinzufügen. Werbung und Inhalte können gezeigt und gemessen werden. Einblicke über das Publikum, welche die Werbung gesehen haben und den Inhalt, können abgeleitet werden. So wie Daten können genutzt werden, um es zu verbessern oder die Benutzer Erfahrung zu verbessern das System und die Software.

Wenn du “Ich stimme zu” klickst, erlaubst du uns, die Cookies zu benutzen die Geräte Bezeichnung, den Web oder ähnliche Technologien zu benutzen. Deine Settings, können in deinem Gerät bei deinem Browser geändert werden.

Für den bestimmten Zweck, berechtigten Interessen beruhen darauf, mehr als auf den Inhalt. Du kannst mehr darüber in unseren Privaten und Cookie Politik lesen.